******************************************************************************* JPL/HORIZONS ZTF (C/2022 E3) 2023-Mar-25 16:40:37 Rec #:90004684 (+COV) Soln.date: 2023-Mar-13_15:23:04 # obs: 4341 (2021-2023) IAU76/J2000 helio. ecliptic osc. elements (au, days, deg., period=Julian yrs): EPOCH= 2459858.5 ! 2022-Oct-06.0000000 (TDB) RMSW= n.a. EC= 1.000302306885113 QR= 1.112239318058591 TP= 2459957.2842584155 OM= 302.5546444364497 W= 145.8148045521307 IN= 109.169125690016 A= -3679.172962412701 MA= -.000436281211310523ADIST= 9.999999E99 PER= 9.999999E99 N= 4.417E-6 ANGMOM= .02565833 DAN= 12.89567 DDN= 1.21743 L= 135.1274214 B= 32.0538391 MOID= .22161099 TP= 2023-Jan-12.7842584155 Comet physical (GM= km^3/s^2; RAD= km): GM= n.a. RAD= n.a. M1= 10.7 M2= n.a. k1= 4.5 k2= n.a. PHCOF= n.a. Comet non-gravitational force model (AMRAT=m^2/kg;A1-A3=au/d^2;DT=days;R0=au): AMRAT= 0. DT= 0. A1= 8.939416408539E-9 A2= -7.645025849342E-9 A3= 1.999931782484E-9 Standard model: ALN= .1112620426 NK= 4.6142 NM= 2.15 NN= 5.093 R0= 2.808 COMET comments 1: soln ref.= JPL#48, data arc: 2021-10-25 to 2023-03-12 2: k1=4.5; ******************************************************************************* ******************************************************************************* Ephemeris / WWW_USER Sat Mar 25 16:40:37 2023 Pasadena, USA / Horizons ******************************************************************************* Target body name: ZTF (C/2022 E3) {source: JPL#48} Center body name: Sun (10) {source: DE441} Center-site name: BODY CENTER ******************************************************************************* Start time : A.D. 2495-Jan-01 00:00:00.0000 TDB Stop time : A.D. 2499-Jan-01 00:00:00.0000 TDB Step-size : 4 calendar years ******************************************************************************* Center geodetic : 0.0, 0.0, 0.0 {E-lon(deg),Lat(deg),Alt(km)} Center cylindric: 0.0, 0.0, 0.0 {E-lon(deg),Dxy(km),Dz(km)} Center radii : 696000.0, 696000.0, 696000.0 km {Equator_a, b, pole_c} Keplerian GM : 2.9591220828411951E-04 au^3/d^2 Small perturbers: Yes {source: SB441-N16} Output units : AU-D, deg, Julian Day Number (Tp) Calendar mode : Mixed Julian/Gregorian Output type : GEOMETRIC osculating elements Output format : 10 Reference frame : Ecliptic of J2000.0 ******************************************************************************* Initial IAU76/J2000 heliocentric ecliptic osculating elements (au, days, deg.): EPOCH= 2459858.5 ! 2022-Oct-06.0000000 (TDB) RMSW= n.a. EC= 1.000302306885113 QR= 1.112239318058591 TP= 2459957.2842584155 OM= 302.5546444364497 W= 145.8148045521307 IN= 109.169125690016 Equivalent ICRF heliocentric cartesian coordinates (au, au/d): X=-6.948632273911734E-02 Y=-1.512804668744315E+00 Z= 1.118683943027856E+00 VX=-7.812307346801149E-03 VY= 1.581497308148042E-02 VZ= 1.808406957784951E-03 Comet physical (GM= km^3/s^2; RAD= km): GM= n.a. RAD= n.a. M1= 10.7 M2= n.a. k1= 4.5 k2= n.a. PHCOF= n.a. Comet non-gravitational force model (AMRAT=m^2/kg;A1-A3=au/d^2;DT=days;R0=au): AMRAT= 0. DT= 0. A1= 8.939416408539E-9 A2= -7.645025849342E-9 A3= 1.999931782484E-9 Standard model: ALN= .1112620426 NK= 4.6142 NM= 2.15 NN= 5.093 R0= 2.808 ******************************************************************************* JDTDB EC QR IN OM W Tp N MA TA A AD PR ******************************************************************************* $$SOE 2632340.500000000 = A.D. 2495-Jan-01 00:00:00.0000 TDB EC= 9.999254922706009E-01 QR= 1.065697904993950E+00 IN= 1.042407113855727E+02 OM= 3.069394586584973E+02 W = 1.470080475391164E+02 Tp= 2460105.541899785865 N = 5.761756478049530E-07 MA= 9.923758855803545E-02 TA= 1.736068939161779E+02 A = 1.430318590545563E+04 AD= 2.860530611300626E+04 PR= 6.248094680354612E+08 2633801.500000000 = A.D. 2499-Jan-01 00:00:00.0000 TDB EC= 9.998503128544500E-01 QR= 9.890508297547690E-01 IN= 1.107893640169464E+02 OM= 3.011344511802462E+02 W = 1.449791379824833E+02 Tp= 2459433.518505697604 N = 1.835071187997627E-06 MA= 3.199776589495235E-01 TA= 1.739019691249472E+02 A = 6.607453339543662E+03 AD= 1.321391762825757E+04 PR= 1.961776754790755E+08 $$EOE ******************************************************************************* TIME Barycentric Dynamical Time ("TDB" or T_eph) output was requested. This continuous coordinate time is equivalent to the relativistic proper time of a clock at rest in a reference frame co-moving with the solar system barycenter but outside the system's gravity well. It is the independent variable in the solar system relativistic equations of motion. TDB runs at a uniform rate of one SI second per second and is independent of irregularities in Earth's rotation. CALENDAR SYSTEM Mixed calendar mode was active such that calendar dates after AD 1582-Oct-15 (if any) are in the modern Gregorian system. Dates prior to 1582-Oct-5 (if any) are in the Julian calendar system, which is automatically extended for dates prior to its adoption on 45-Jan-1 BC. The Julian calendar is useful for matching historical dates. The Gregorian calendar more accurately corresponds to the Earth's orbital motion and seasons. A "Gregorian-only" calendar mode is available if such physical events are the primary interest. REFERENCE FRAME AND COORDINATES Ecliptic at the standard reference epoch Reference epoch: J2000.0 X-Y plane: adopted Earth orbital plane at the reference epoch Note: IAU76 obliquity of 84381.448 arcseconds wrt ICRF X-Y plane X-axis : ICRF Z-axis : perpendicular to the X-Y plane in the directional (+ or -) sense of Earth's north pole at the reference epoch. Symbol meaning [1 au= 149597870.700 km, 1 day= 86400.0 s]: JDTDB Julian Day Number, Barycentric Dynamical Time EC Eccentricity, e QR Periapsis distance, q (au) IN Inclination w.r.t X-Y plane, i (degrees) OM Longitude of Ascending Node, OMEGA, (degrees) W Argument of Perifocus, w (degrees) Tp Time of periapsis (Julian Day Number) N Mean motion, n (degrees/day) MA Mean anomaly, M (degrees) TA True anomaly, nu (degrees) A Semi-major axis, a (au) AD Apoapsis distance (au) PR Sidereal orbit period (day) ABERRATIONS AND CORRECTIONS Geometric osculating elements have NO corrections or aberrations applied. Computations by ... Solar System Dynamics Group, Horizons On-Line Ephemeris System 4800 Oak Grove Drive, Jet Propulsion Laboratory Pasadena, CA 91109 USA General site: https://ssd.jpl.nasa.gov/ Mailing list: https://ssd.jpl.nasa.gov/email_list.html System news : https://ssd.jpl.nasa.gov/horizons/news.html User Guide : https://ssd.jpl.nasa.gov/horizons/manual.html Connect : browser https://ssd.jpl.nasa.gov/horizons/app.html#/x API https://ssd-api.jpl.nasa.gov/doc/horizons.html command-line telnet ssd.jpl.nasa.gov 6775 e-mail/batch https://ssd.jpl.nasa.gov/ftp/ssd/hrzn_batch.txt scripts https://ssd.jpl.nasa.gov/ftp/ssd/SCRIPTS Author : Jon.D.Giorgini@jpl.nasa.gov ******************************************************************************* !$$SOF COMMAND = '2022 E3' TABLE_TYPE = 'ELEMENTS' START_TIME = '2495-01-01' STOP_TIME = '2499-01-01' STEP_SIZE = '4 year' CENTER = '@sun' OUT_UNITS = 'AU-D'